Year,Month,Day,Hour,Minute,Value (Times are PST for temperature in C)
2023,04,20,00,00,3.10
2023,04,20,00,01,3.20
2023,04,20,00,02,3.20
2023,04,20,00,03,3.20
2023,04,20,00,04,3.20
2023,04,20,00,05,3.20
2023,04,20,00,06,3.20
2023,04,20,00,07,3.10
2023,04,20,00,08,3.10
2023,04,20,00,09,3.10
2023,04,20,00,10,3.10
2023,04,20,00,11,3.20
2023,04,20,00,12,3.20
2023,04,20,00,13,3.20
2023,04,20,00,14,3.20
2023,04,20,00,15,3.20
2023,04,20,00,16,3.20
2023,04,20,00,17,3.20
2023,04,20,00,18,3.10
2023,04,20,00,19,3.10
2023,04,20,00,20,3.10
2023,04,20,00,21,3.10
2023,04,20,00,22,3.10
2023,04,20,00,23,3.10
2023,04,20,00,24,3.10
2023,04,20,00,25,3.20
2023,04,20,00,26,3.20
2023,04,20,00,27,3.20
2023,04,20,00,28,3.20
2023,04,20,00,29,3.20
2023,04,20,00,30,3.20
2023,04,20,00,31,3.20
2023,04,20,00,32,3.20
2023,04,20,00,33,3.20
2023,04,20,00,34,3.20
2023,04,20,00,35,3.20
2023,04,20,00,36,3.20
2023,04,20,00,37,3.20
2023,04,20,00,38,3.20
2023,04,20,00,39,3.20
2023,04,20,00,40,3.20
2023,04,20,00,41,3.30
2023,04,20,00,42,3.30
2023,04,20,00,43,3.30
2023,04,20,00,44,3.30
2023,04,20,00,45,3.30
2023,04,20,00,46,3.30
2023,04,20,00,47,3.30
2023,04,20,00,48,3.30
2023,04,20,00,49,3.30
2023,04,20,00,50,3.30
2023,04,20,00,51,3.30
2023,04,20,00,52,3.30
2023,04,20,00,53,3.40
2023,04,20,00,54,3.40
2023,04,20,00,55,3.50
2023,04,20,00,56,3.50
2023,04,20,00,57,3.60
2023,04,20,00,58,3.60
2023,04,20,00,59,3.60
2023,04,20,01,00,3.60
2023,04,20,01,01,3.60
2023,04,20,01,02,3.60
2023,04,20,01,03,3.60
2023,04,20,01,04,3.60
2023,04,20,01,05,3.70
2023,04,20,01,06,3.70
2023,04,20,01,07,3.70
2023,04,20,01,08,3.70
2023,04,20,01,09,3.70
2023,04,20,01,10,3.70
2023,04,20,01,11,3.70
2023,04,20,01,12,3.70
2023,04,20,01,13,3.70
2023,04,20,01,14,3.70
2023,04,20,01,15,3.70
2023,04,20,01,16,3.70
2023,04,20,01,17,3.70
2023,04,20,01,18,3.70
2023,04,20,01,19,3.70
2023,04,20,01,20,3.70
2023,04,20,01,21,3.70
2023,04,20,01,22,3.70
2023,04,20,01,23,3.80
2023,04,20,01,24,3.80
2023,04,20,01,25,3.80
2023,04,20,01,26,3.80
2023,04,20,01,27,3.80
2023,04,20,01,28,3.90
2023,04,20,01,29,3.90
2023,04,20,01,30,3.90
2023,04,20,01,31,3.90
2023,04,20,01,32,3.90
2023,04,20,01,33,3.90
2023,04,20,01,34,3.90
2023,04,20,01,35,3.90
2023,04,20,01,36,3.90
2023,04,20,01,37,3.90
2023,04,20,01,38,3.90
2023,04,20,01,39,3.90
2023,04,20,01,40,4.00
2023,04,20,01,41,4.00
2023,04,20,01,42,4.00
2023,04,20,01,43,4.00
2023,04,20,01,44,4.00
2023,04,20,01,45,4.00
2023,04,20,01,46,4.00
2023,04,20,01,47,4.00
2023,04,20,01,48,4.00
2023,04,20,01,49,4.00
2023,04,20,01,50,4.10
2023,04,20,01,51,4.10
2023,04,20,01,52,4.10
2023,04,20,01,53,4.10
2023,04,20,01,54,4.10
2023,04,20,01,55,4.20
2023,04,20,01,56,4.20
2023,04,20,01,57,4.20
2023,04,20,01,58,4.20
2023,04,20,01,59,4.20
2023,04,20,02,00,4.10
2023,04,20,02,01,4.10
2023,04,20,02,02,4.10
2023,04,20,02,03,4.10
2023,04,20,02,04,4.10
2023,04,20,02,05,4.10
2023,04,20,02,06,4.00
2023,04,20,02,07,4.00
2023,04,20,02,08,3.90
2023,04,20,02,09,3.90
2023,04,20,02,10,3.90
2023,04,20,02,11,3.90
2023,04,20,02,12,3.80
2023,04,20,02,13,3.80
2023,04,20,02,14,3.80
2023,04,20,02,15,3.80
2023,04,20,02,16,3.80
2023,04,20,02,17,3.80
2023,04,20,02,18,3.80
2023,04,20,02,19,3.80
2023,04,20,02,20,3.80
2023,04,20,02,21,3.80
2023,04,20,02,22,3.80
2023,04,20,02,23,3.70
2023,04,20,02,24,3.70
2023,04,20,02,25,3.70
2023,04,20,02,26,3.70
2023,04,20,02,27,3.70
2023,04,20,02,28,3.60
2023,04,20,02,29,3.60
2023,04,20,02,30,3.60
2023,04,20,02,31,3.60
2023,04,20,02,32,3.60
2023,04,20,02,33,3.60
2023,04,20,02,34,3.60
2023,04,20,02,35,3.50
2023,04,20,02,36,3.50
2023,04,20,02,37,3.50
2023,04,20,02,38,3.60
2023,04,20,02,39,3.60
2023,04,20,02,40,3.60
2023,04,20,02,41,3.60
2023,04,20,02,42,3.60
2023,04,20,02,43,3.70
2023,04,20,02,44,3.80
2023,04,20,02,45,3.80
2023,04,20,02,46,3.90
2023,04,20,02,47,3.90
2023,04,20,02,48,3.90
2023,04,20,02,49,3.90
2023,04,20,02,50,3.90
2023,04,20,02,51,3.90
2023,04,20,02,52,4.00
2023,04,20,02,53,4.00
2023,04,20,02,54,4.10
2023,04,20,02,55,4.10
2023,04,20,02,56,4.10
2023,04,20,02,57,4.10
2023,04,20,02,58,4.10
2023,04,20,02,59,4.10
2023,04,20,03,00,4.10
2023,04,20,03,01,4.10
2023,04,20,03,02,4.20
2023,04,20,03,03,4.20
2023,04,20,03,04,4.20
2023,04,20,03,05,4.20
2023,04,20,03,06,4.20
2023,04,20,03,07,4.20
2023,04,20,03,08,4.20
2023,04,20,03,09,4.20
2023,04,20,03,10,4.10
2023,04,20,03,11,4.10
2023,04,20,03,12,4.10
2023,04,20,03,13,4.20
2023,04,20,03,14,4.10
2023,04,20,03,15,4.20
2023,04,20,03,16,4.20
2023,04,20,03,17,4.20
2023,04,20,03,18,4.30
2023,04,20,03,19,4.30
2023,04,20,03,20,4.30
2023,04,20,03,21,4.30
2023,04,20,03,22,4.30
2023,04,20,03,23,4.30
2023,04,20,03,24,4.30
2023,04,20,03,25,4.30
2023,04,20,03,26,4.30
2023,04,20,03,27,4.30
2023,04,20,03,28,4.20
2023,04,20,03,29,4.20
2023,04,20,03,30,4.20
2023,04,20,03,31,4.20
2023,04,20,03,32,4.20
2023,04,20,03,33,4.20
2023,04,20,03,34,4.20
2023,04,20,03,35,4.30
2023,04,20,03,36,4.30
2023,04,20,03,37,4.30
2023,04,20,03,38,4.30
2023,04,20,03,39,4.30
2023,04,20,03,40,4.20
2023,04,20,03,41,4.20
2023,04,20,03,42,4.30
2023,04,20,03,43,4.30
2023,04,20,03,44,4.20
2023,04,20,03,45,4.20
2023,04,20,03,46,4.20
2023,04,20,03,47,4.20
2023,04,20,03,48,4.30
2023,04,20,03,49,4.30
2023,04,20,03,50,4.30
2023,04,20,03,51,4.30
2023,04,20,03,52,4.30
2023,04,20,03,53,4.30
2023,04,20,03,54,4.20
2023,04,20,03,55,4.20
2023,04,20,03,56,4.20
2023,04,20,03,57,4.20
2023,04,20,03,58,4.10
2023,04,20,03,59,4.10
2023,04,20,04,00,4.00
2023,04,20,04,01,4.00
2023,04,20,04,02,3.90
2023,04,20,04,03,3.90
2023,04,20,04,04,3.90
2023,04,20,04,05,3.80
2023,04,20,04,06,3.90
2023,04,20,04,07,3.90
2023,04,20,04,08,4.00
2023,04,20,04,09,4.10
2023,04,20,04,10,4.00
2023,04,20,04,11,4.00
2023,04,20,04,12,3.90
2023,04,20,04,13,3.90
2023,04,20,04,14,3.90
2023,04,20,04,15,3.90
2023,04,20,04,16,3.90
2023,04,20,04,17,3.80
2023,04,20,04,18,3.80
2023,04,20,04,19,3.80
2023,04,20,04,20,3.70
2023,04,20,04,21,3.70
2023,04,20,04,22,3.60
2023,04,20,04,23,3.60
2023,04,20,04,24,3.60
2023,04,20,04,25,3.60
2023,04,20,04,26,3.60
2023,04,20,04,27,3.50
2023,04,20,04,28,3.50
2023,04,20,04,29,3.50
2023,04,20,04,30,3.50
2023,04,20,04,31,3.50
2023,04,20,04,32,3.50
2023,04,20,04,33,3.60
2023,04,20,04,34,3.60
2023,04,20,04,35,3.60
2023,04,20,04,36,3.60
2023,04,20,04,37,3.60
2023,04,20,04,38,3.50
2023,04,20,04,39,3.40
2023,04,20,04,40,3.40
2023,04,20,04,41,3.50
2023,04,20,04,42,3.60
2023,04,20,04,43,3.50
2023,04,20,04,44,3.50
2023,04,20,04,45,3.50
2023,04,20,04,46,3.60
2023,04,20,04,47,3.70
2023,04,20,04,48,3.70
2023,04,20,04,49,3.70
2023,04,20,04,50,3.90
2023,04,20,04,51,4.00
2023,04,20,04,52,4.00
2023,04,20,04,53,4.00
2023,04,20,04,54,4.00
2023,04,20,04,55,4.00
2023,04,20,04,56,3.90
2023,04,20,04,57,3.80
2023,04,20,04,58,3.90
2023,04,20,04,59,4.00
2023,04,20,05,00,4.10
2023,04,20,05,01,4.10
2023,04,20,05,02,4.20
2023,04,20,05,03,4.30
2023,04,20,05,04,4.30
2023,04,20,05,05,4.40
2023,04,20,05,06,4.50
2023,04,20,05,07,4.60
2023,04,20,05,08,4.60
2023,04,20,05,09,4.70
2023,04,20,05,10,4.80
2023,04,20,05,11,4.80
2023,04,20,05,12,4.90
2023,04,20,05,13,4.90
2023,04,20,05,14,4.90
2023,04,20,05,15,4.80
2023,04,20,05,16,4.80
2023,04,20,05,17,4.80
2023,04,20,05,18,4.80
2023,04,20,05,19,4.80
2023,04,20,05,20,4.80
2023,04,20,05,21,4.80
2023,04,20,05,22,4.90
2023,04,20,05,23,4.90
2023,04,20,05,24,4.90
2023,04,20,05,25,4.90
2023,04,20,05,26,4.90
2023,04,20,05,27,4.80
2023,04,20,05,28,4.80
2023,04,20,05,29,4.90
2023,04,20,05,30,5.00
2023,04,20,05,31,5.00
2023,04,20,05,32,5.00
2023,04,20,05,33,5.00
2023,04,20,05,34,5.10
2023,04,20,05,35,5.10
2023,04,20,05,36,5.10
2023,04,20,05,37,5.10
2023,04,20,05,38,5.10
2023,04,20,05,39,5.10
2023,04,20,05,40,5.10
2023,04,20,05,41,5.10
2023,04,20,05,42,5.10
2023,04,20,05,43,5.00
2023,04,20,05,44,5.00
2023,04,20,05,45,5.00
2023,04,20,05,46,5.00
2023,04,20,05,47,5.10
2023,04,20,05,48,5.10
2023,04,20,05,49,5.10
2023,04,20,05,50,5.10
2023,04,20,05,51,5.10
2023,04,20,05,52,5.10
2023,04,20,05,53,5.20
2023,04,20,05,54,5.20
2023,04,20,05,55,5.20
2023,04,20,05,56,5.30
2023,04,20,05,57,5.30
2023,04,20,05,58,5.30
2023,04,20,05,59,5.40
2023,04,20,06,00,5.40
2023,04,20,06,01,5.50
2023,04,20,06,02,5.50
2023,04,20,06,03,5.60
2023,04,20,06,04,5.60
2023,04,20,06,05,5.70
2023,04,20,06,06,5.70
2023,04,20,06,07,5.80
2023,04,20,06,08,5.80
2023,04,20,06,09,5.90
2023,04,20,06,10,5.90
2023,04,20,06,11,5.90
2023,04,20,06,12,5.90
2023,04,20,06,13,5.90
2023,04,20,06,14,5.90
2023,04,20,06,15,5.90
2023,04,20,06,16,6.00
2023,04,20,06,17,6.00
2023,04,20,06,18,6.00
2023,04,20,06,19,6.00
2023,04,20,06,20,6.00
2023,04,20,06,21,6.00
2023,04,20,06,22,6.10
2023,04,20,06,23,6.10
2023,04,20,06,24,6.10
2023,04,20,06,25,6.10
2023,04,20,06,26,6.10
2023,04,20,06,27,6.10
2023,04,20,06,28,6.20
2023,04,20,06,29,6.20
2023,04,20,06,30,6.20
2023,04,20,06,31,6.20
2023,04,20,06,32,6.20
2023,04,20,06,33,6.20
2023,04,20,06,34,6.20
2023,04,20,06,35,6.20
2023,04,20,06,36,6.10
2023,04,20,06,37,6.10
2023,04,20,06,38,6.10
2023,04,20,06,39,6.10
2023,04,20,06,40,6.10
2023,04,20,06,41,6.10
2023,04,20,06,42,6.20
2023,04,20,06,43,6.20
2023,04,20,06,44,6.20
2023,04,20,06,45,6.20
2023,04,20,06,46,6.20
2023,04,20,06,47,6.20
2023,04,20,06,48,6.20
2023,04,20,06,49,6.20
2023,04,20,06,50,6.20
2023,04,20,06,51,6.20
2023,04,20,06,52,6.20
2023,04,20,06,53,6.20
2023,04,20,06,54,6.20
2023,04,20,06,55,6.20
2023,04,20,06,56,6.20
2023,04,20,06,57,6.20
2023,04,20,06,58,6.20
2023,04,20,06,59,6.20
2023,04,20,07,00,6.30
2023,04,20,07,01,6.30
2023,04,20,07,02,6.30
2023,04,20,07,03,6.30
2023,04,20,07,04,6.30
2023,04,20,07,05,6.30
2023,04,20,07,06,6.30
2023,04,20,07,07,6.30
2023,04,20,07,08,6.30
2023,04,20,07,09,6.30
2023,04,20,07,10,6.30
2023,04,20,07,11,6.30
2023,04,20,07,12,6.30
2023,04,20,07,13,6.30
2023,04,20,07,14,6.30
2023,04,20,07,15,6.30
2023,04,20,07,16,6.30
2023,04,20,07,17,6.30
2023,04,20,07,18,6.30
2023,04,20,07,19,6.30
2023,04,20,07,20,6.30
2023,04,20,07,21,6.30
2023,04,20,07,22,6.30
2023,04,20,07,23,6.30
2023,04,20,07,24,6.30
2023,04,20,07,25,6.40
2023,04,20,07,26,6.40
2023,04,20,07,27,6.40
2023,04,20,07,28,6.40
2023,04,20,07,29,6.40
2023,04,20,07,30,6.30
2023,04,20,07,31,6.40
2023,04,20,07,32,6.40
2023,04,20,07,33,6.40
2023,04,20,07,34,6.40
2023,04,20,07,35,6.40
2023,04,20,07,36,6.40
2023,04,20,07,37,6.40
2023,04,20,07,38,6.40
2023,04,20,07,39,6.40
2023,04,20,07,40,6.40
2023,04,20,07,41,6.40
2023,04,20,07,42,6.40
2023,04,20,07,43,6.40
2023,04,20,07,44,6.40
2023,04,20,07,45,6.40
2023,04,20,07,46,6.50
2023,04,20,07,47,6.50
2023,04,20,07,48,6.50
2023,04,20,07,49,6.50
2023,04,20,07,50,6.50
2023,04,20,07,51,6.50
2023,04,20,07,52,6.50
2023,04,20,07,53,6.60
2023,04,20,07,54,6.60
2023,04,20,07,55,6.60
2023,04,20,07,56,6.60
2023,04,20,07,57,6.60
2023,04,20,07,58,6.60
2023,04,20,07,59,6.60
2023,04,20,08,00,6.70
2023,04,20,08,01,6.70
2023,04,20,08,02,6.70
2023,04,20,08,03,6.70
2023,04,20,08,04,6.70
2023,04,20,08,05,6.70
2023,04,20,08,06,6.70
2023,04,20,08,07,6.70
2023,04,20,08,08,6.70
2023,04,20,08,09,6.70
2023,04,20,08,10,6.70
2023,04,20,08,11,6.80
2023,04,20,08,12,6.80
2023,04,20,08,13,6.80
2023,04,20,08,14,6.80
2023,04,20,08,15,6.80
2023,04,20,08,16,6.80
2023,04,20,08,17,6.80
2023,04,20,08,18,6.80
2023,04,20,08,19,6.90
2023,04,20,08,20,6.90
2023,04,20,08,21,6.90
2023,04,20,08,22,6.90
2023,04,20,08,23,6.90
2023,04,20,08,24,6.90
2023,04,20,08,25,7.00
2023,04,20,08,26,7.00
2023,04,20,08,27,7.00
2023,04,20,08,28,7.00
2023,04,20,08,29,7.00
2023,04,20,08,30,7.00
2023,04,20,08,31,7.10
2023,04,20,08,32,7.10
2023,04,20,08,33,7.10
2023,04,20,08,34,7.10
2023,04,20,08,35,7.10
2023,04,20,08,36,7.10
2023,04,20,08,37,7.10
2023,04,20,08,38,7.10
2023,04,20,08,39,7.10
2023,04,20,08,40,7.10
2023,04,20,08,41,7.10
2023,04,20,08,42,7.10
2023,04,20,08,43,7.10
2023,04,20,08,44,7.10
2023,04,20,08,45,7.10
2023,04,20,08,46,7.10
2023,04,20,08,47,7.10
2023,04,20,08,48,7.10
2023,04,20,08,49,7.10
2023,04,20,08,50,7.10
2023,04,20,08,51,7.10
2023,04,20,08,52,7.10
2023,04,20,08,53,7.20
2023,04,20,08,54,7.20
2023,04,20,08,55,7.20
2023,04,20,08,56,7.20
2023,04,20,08,57,7.20
2023,04,20,08,58,7.20
2023,04,20,08,59,7.20
2023,04,20,09,00,7.20
2023,04,20,09,01,7.20
2023,04,20,09,02,7.20
2023,04,20,09,03,7.20
2023,04,20,09,04,7.20
2023,04,20,09,05,7.20
2023,04,20,09,06,7.20
2023,04,20,09,07,7.30
2023,04,20,09,08,7.30
2023,04,20,09,09,7.30
2023,04,20,09,10,7.30
2023,04,20,09,11,7.30
2023,04,20,09,12,7.30
2023,04,20,09,13,7.30
2023,04,20,09,14,7.30
2023,04,20,09,15,7.30
2023,04,20,09,16,7.30
2023,04,20,09,17,7.30
2023,04,20,09,18,7.30
2023,04,20,09,19,7.30
2023,04,20,09,20,7.30
2023,04,20,09,21,7.40
2023,04,20,09,22,7.30
2023,04,20,09,23,7.40
2023,04,20,09,24,7.30
2023,04,20,09,25,7.30
2023,04,20,09,26,7.30
2023,04,20,09,27,7.30
2023,04,20,09,28,7.30
2023,04,20,09,29,7.40
2023,04,20,09,30,7.40
2023,04,20,09,31,7.40
2023,04,20,09,32,7.40
2023,04,20,09,33,7.50
2023,04,20,09,34,7.50
2023,04,20,09,35,7.60
2023,04,20,09,36,7.60
2023,04,20,09,37,7.60
2023,04,20,09,38,7.60
2023,04,20,09,39,7.60
2023,04,20,09,40,7.60
2023,04,20,09,41,7.70
2023,04,20,09,42,7.70
2023,04,20,09,43,7.70
2023,04,20,09,44,7.80
2023,04,20,09,45,7.80
2023,04,20,09,46,7.80
2023,04,20,09,47,7.80
2023,04,20,09,48,7.90
2023,04,20,09,49,8.00
2023,04,20,09,50,8.00
2023,04,20,09,51,8.10
2023,04,20,09,52,8.10
2023,04,20,09,53,8.00
2023,04,20,09,54,8.00
2023,04,20,09,55,8.10
2023,04,20,09,56,8.10
2023,04,20,09,57,8.10
2023,04,20,09,58,8.10
2023,04,20,09,59,8.20
2023,04,20,10,00,8.20
2023,04,20,10,01,8.20
2023,04,20,10,02,8.20
2023,04,20,10,03,8.20
2023,04,20,10,04,8.20
2023,04,20,10,05,8.20
2023,04,20,10,06,8.20
2023,04,20,10,07,8.20
2023,04,20,10,08,8.20
2023,04,20,10,09,8.20
2023,04,20,10,10,8.20
2023,04,20,10,11,8.20
2023,04,20,10,12,8.20
2023,04,20,10,13,8.20
2023,04,20,10,14,8.20
2023,04,20,10,15,8.20
2023,04,20,10,16,8.20
2023,04,20,10,17,8.20
2023,04,20,10,18,8.20
2023,04,20,10,19,8.20
2023,04,20,10,20,8.20
2023,04,20,10,21,8.20
2023,04,20,10,22,8.20
2023,04,20,10,23,8.20
2023,04,20,10,24,8.20
2023,04,20,10,25,8.10
2023,04,20,10,26,8.10
2023,04,20,10,27,8.10
2023,04,20,10,28,8.10
2023,04,20,10,29,8.10
2023,04,20,10,30,8.10
2023,04,20,10,31,8.10
2023,04,20,10,32,8.10
2023,04,20,10,33,8.10
2023,04,20,10,34,8.20
2023,04,20,10,35,8.20
2023,04,20,10,36,8.20
2023,04,20,10,37,8.20
2023,04,20,10,38,8.20
2023,04,20,10,39,8.30
2023,04,20,10,40,8.30
2023,04,20,10,41,8.30
2023,04,20,10,42,8.30
2023,04,20,10,43,8.30
2023,04,20,10,44,8.30
2023,04,20,10,45,8.40
2023,04,20,10,46,8.40
2023,04,20,10,47,8.40
2023,04,20,10,48,8.40
2023,04,20,10,49,8.40
2023,04,20,10,50,8.50
2023,04,20,10,51,8.50
2023,04,20,10,52,8.50
2023,04,20,10,53,8.60
2023,04,20,10,54,8.60
2023,04,20,10,55,8.60
2023,04,20,10,56,8.60
2023,04,20,10,57,8.70
2023,04,20,10,58,8.70
2023,04,20,10,59,8.80
2023,04,20,11,00,8.80
2023,04,20,11,01,8.80
2023,04,20,11,02,8.80
2023,04,20,11,03,8.80
2023,04,20,11,04,8.80
2023,04,20,11,05,8.90
2023,04,20,11,06,8.90
2023,04,20,11,07,8.90
2023,04,20,11,08,8.90
2023,04,20,11,09,8.90
2023,04,20,11,10,8.90
2023,04,20,11,11,8.90
2023,04,20,11,12,8.90
2023,04,20,11,13,8.90
2023,04,20,11,14,8.90
2023,04,20,11,15,8.90
2023,04,20,11,16,8.90
2023,04,20,11,17,8.80
2023,04,20,11,18,8.80
2023,04,20,11,19,8.80
2023,04,20,11,20,8.80
2023,04,20,11,21,8.80
2023,04,20,11,22,8.80
2023,04,20,11,23,8.90
2023,04,20,11,24,8.90
2023,04,20,11,25,8.90
2023,04,20,11,26,9.00
2023,04,20,11,27,9.00
2023,04,20,11,28,9.00
2023,04,20,11,29,9.00
2023,04,20,11,30,9.00
2023,04,20,11,31,9.00
2023,04,20,11,32,9.00
2023,04,20,11,33,9.00
2023,04,20,11,34,9.00
2023,04,20,11,35,8.90
2023,04,20,11,36,8.90
2023,04,20,11,37,8.90
2023,04,20,11,38,8.90
2023,04,20,11,39,8.90
2023,04,20,11,40,8.90
2023,04,20,11,41,8.90
2023,04,20,11,42,8.90
2023,04,20,11,43,8.90
2023,04,20,11,44,8.90
2023,04,20,11,45,8.90
2023,04,20,11,46,8.90
2023,04,20,11,47,8.90
2023,04,20,11,48,8.90
2023,04,20,11,49,8.90
2023,04,20,11,50,9.00
2023,04,20,11,51,9.00
2023,04,20,11,52,9.00
2023,04,20,11,53,9.00
2023,04,20,11,54,9.00
2023,04,20,11,55,9.00
2023,04,20,11,56,9.00
2023,04,20,11,57,9.10
2023,04,20,11,58,9.10
2023,04,20,11,59,9.10
2023,04,20,12,00,9.10
2023,04,20,12,01,9.10
2023,04,20,12,02,9.00
2023,04,20,12,03,9.10
2023,04,20,12,04,9.10
2023,04,20,12,05,9.10
2023,04,20,12,06,9.10
2023,04,20,12,07,9.10
2023,04,20,12,08,9.10
2023,04,20,12,09,9.00
2023,04,20,12,10,9.00
2023,04,20,12,11,9.00
2023,04,20,12,12,9.00
2023,04,20,12,13,9.00
2023,04,20,12,14,9.00
2023,04,20,12,15,9.00
2023,04,20,12,16,9.00
2023,04,20,12,17,8.90
2023,04,20,12,18,8.90
2023,04,20,12,19,8.90
2023,04,20,12,20,8.90
2023,04,20,12,21,8.90
2023,04,20,12,22,8.90
2023,04,20,12,23,8.90
2023,04,20,12,24,8.80
2023,04,20,12,25,8.80
2023,04,20,12,26,8.80
2023,04,20,12,27,8.80
2023,04,20,12,28,8.80
2023,04,20,12,29,8.70
2023,04,20,12,30,8.70
2023,04,20,12,31,8.70
2023,04,20,12,32,8.70
2023,04,20,12,33,8.70
2023,04,20,12,34,8.70
2023,04,20,12,35,8.80
2023,04,20,12,36,8.80
2023,04,20,12,37,8.70
2023,04,20,12,38,8.80
2023,04,20,12,39,8.80
2023,04,20,12,40,8.80
2023,04,20,12,41,8.70
2023,04,20,12,42,8.70
2023,04,20,12,43,8.70
2023,04,20,12,44,8.70
2023,04,20,12,45,8.60
2023,04,20,12,46,8.60
2023,04,20,12,47,8.60
2023,04,20,12,48,8.60
2023,04,20,12,49,8.60
2023,04,20,12,50,8.50
2023,04,20,12,51,8.50
2023,04,20,12,52,8.50
2023,04,20,12,53,8.50
2023,04,20,12,54,8.50
2023,04,20,12,55,8.50
2023,04,20,12,56,8.50
2023,04,20,12,57,8.50
2023,04,20,12,58,8.50
2023,04,20,12,59,8.50
2023,04,20,13,00,8.50
2023,04,20,13,01,8.50
2023,04,20,13,02,8.50
2023,04,20,13,03,8.50
2023,04,20,13,04,8.50
2023,04,20,13,05,8.60
2023,04,20,13,06,8.60
2023,04,20,13,07,8.60
2023,04,20,13,08,8.70
2023,04,20,13,09,8.70
2023,04,20,13,10,8.70
2023,04,20,13,11,8.60
2023,04,20,13,12,8.60
2023,04,20,13,13,8.70
2023,04,20,13,14,8.70
2023,04,20,13,15,8.70
2023,04,20,13,16,8.70
2023,04,20,13,17,8.70
2023,04,20,13,18,8.80
2023,04,20,13,19,8.80
2023,04,20,13,20,8.90
2023,04,20,13,21,8.90
2023,04,20,13,22,8.90
2023,04,20,13,23,9.00
2023,04,20,13,24,9.10
2023,04,20,13,25,9.10
2023,04,20,13,26,9.20
2023,04,20,13,27,9.20
2023,04,20,13,28,9.30
2023,04,20,13,29,9.30
2023,04,20,13,30,9.30
2023,04,20,13,31,9.30
2023,04,20,13,32,9.30
2023,04,20,13,33,9.30
2023,04,20,13,34,9.30
2023,04,20,13,35,9.30
2023,04,20,13,36,9.30
2023,04,20,13,37,9.30
2023,04,20,13,38,9.40
2023,04,20,13,39,9.40
2023,04,20,13,40,9.40
2023,04,20,13,41,9.50
2023,04,20,13,42,9.50
2023,04,20,13,43,9.50
2023,04,20,13,44,9.40
2023,04,20,13,45,9.40
2023,04,20,13,46,9.40
2023,04,20,13,47,9.40
2023,04,20,13,48,9.40
2023,04,20,13,49,9.40
2023,04,20,13,50,9.40
2023,04,20,13,51,9.50
2023,04,20,13,52,9.50
2023,04,20,13,53,9.50
2023,04,20,13,54,9.50
2023,04,20,13,55,9.50
2023,04,20,13,56,9.60
2023,04,20,13,57,9.60
2023,04,20,13,58,9.70
2023,04,20,13,59,9.60
2023,04,20,14,00,9.60
2023,04,20,14,01,9.70
2023,04,20,14,02,9.70
2023,04,20,14,03,9.70
2023,04,20,14,04,9.80
2023,04,20,14,05,9.80
2023,04,20,14,06,9.80
2023,04,20,14,07,9.80
2023,04,20,14,08,9.80
2023,04,20,14,09,9.70
2023,04,20,14,10,9.70
2023,04,20,14,11,9.70
2023,04,20,14,12,9.70
2023,04,20,14,13,9.70
2023,04,20,14,14,9.70
2023,04,20,14,15,9.80
2023,04,20,14,16,9.80
2023,04,20,14,17,9.80
2023,04,20,14,18,9.80
2023,04,20,14,19,9.80
2023,04,20,14,20,9.80
2023,04,20,14,21,9.80
2023,04,20,14,22,9.80
2023,04,20,14,23,9.70
2023,04,20,14,24,9.70
2023,04,20,14,25,9.70
2023,04,20,14,26,9.70
2023,04,20,14,27,9.60
2023,04,20,14,28,9.60
2023,04,20,14,29,9.60
2023,04,20,14,30,9.60
2023,04,20,14,31,9.60
2023,04,20,14,32,9.70
2023,04,20,14,33,9.70
2023,04,20,14,34,9.70
2023,04,20,14,35,9.70
2023,04,20,14,36,9.70
2023,04,20,14,37,9.70
2023,04,20,14,38,9.70
2023,04,20,14,39,9.70
2023,04,20,14,40,9.70
2023,04,20,14,41,9.60
2023,04,20,14,42,9.60
2023,04,20,14,43,9.60
2023,04,20,14,44,9.60
2023,04,20,14,45,9.60
2023,04,20,14,46,9.60
2023,04,20,14,47,9.60
2023,04,20,14,48,9.60
2023,04,20,14,49,9.60
2023,04,20,14,50,9.60
2023,04,20,14,51,9.60
2023,04,20,14,52,9.50
2023,04,20,14,53,9.50
2023,04,20,14,54,9.50
2023,04,20,14,55,9.50
2023,04,20,14,56,9.50
2023,04,20,14,57,9.50
2023,04,20,14,58,9.50
2023,04,20,14,59,9.50
2023,04,20,15,00,9.50
2023,04,20,15,01,9.50
2023,04,20,15,02,9.50
2023,04,20,15,03,9.50
2023,04,20,15,04,9.50
2023,04,20,15,05,9.40
2023,04,20,15,06,9.40
2023,04,20,15,07,9.40
2023,04,20,15,08,9.40
2023,04,20,15,09,9.50
2023,04,20,15,10,9.50
2023,04,20,15,11,9.50
2023,04,20,15,12,9.50
2023,04,20,15,13,9.50
2023,04,20,15,14,9.50
2023,04,20,15,15,9.50
2023,04,20,15,16,9.40
2023,04,20,15,17,9.40
2023,04,20,15,18,9.40
2023,04,20,15,19,9.30
2023,04,20,15,20,9.30
2023,04,20,15,21,9.30
2023,04,20,15,22,9.30
2023,04,20,15,23,9.20
2023,04,20,15,24,9.20
2023,04,20,15,25,9.20
2023,04,20,15,26,9.20
2023,04,20,15,27,9.10
2023,04,20,15,28,9.20
2023,04,20,15,29,9.20
2023,04,20,15,30,9.10
2023,04,20,15,31,9.10
2023,04,20,15,32,9.10
2023,04,20,15,33,9.10
2023,04,20,15,34,9.10
2023,04,20,15,35,9.10
2023,04,20,15,36,9.10
2023,04,20,15,37,9.10
2023,04,20,15,38,9.10
2023,04,20,15,39,9.10
2023,04,20,15,40,9.10
2023,04,20,15,41,9.10
2023,04,20,15,42,9.00
2023,04,20,15,43,9.00
2023,04,20,15,44,9.00
2023,04,20,15,45,8.90
2023,04,20,15,46,8.90
2023,04,20,15,47,8.90
2023,04,20,15,48,8.90
2023,04,20,15,49,8.90
2023,04,20,15,50,8.90
2023,04,20,15,51,8.90
2023,04,20,15,52,8.90
2023,04,20,15,53,8.90
2023,04,20,15,54,8.90
2023,04,20,15,55,8.90
2023,04,20,15,56,8.90
2023,04,20,15,57,8.90
2023,04,20,15,58,8.80
2023,04,20,15,59,8.80
2023,04,20,16,00,8.80
2023,04,20,16,01,8.80
2023,04,20,16,02,8.80
2023,04,20,16,03,8.80
2023,04,20,16,04,8.80
2023,04,20,16,05,8.80
2023,04,20,16,06,8.70
2023,04,20,16,07,8.70
2023,04,20,16,08,8.70
2023,04,20,16,09,8.70
2023,04,20,16,10,8.70
2023,04,20,16,11,8.60
2023,04,20,16,12,8.60
2023,04,20,16,13,8.60
2023,04,20,16,14,8.60
2023,04,20,16,15,8.60
2023,04,20,16,16,8.60
2023,04,20,16,17,8.60
2023,04,20,16,18,8.50
2023,04,20,16,19,8.50
2023,04,20,16,20,8.50
2023,04,20,16,21,8.50
2023,04,20,16,22,8.40
2023,04,20,16,23,8.40
2023,04,20,16,24,8.40
2023,04,20,16,25,8.30
2023,04,20,16,26,8.30
2023,04,20,16,27,8.30
2023,04,20,16,28,8.20
2023,04,20,16,29,8.20
2023,04,20,16,30,8.20
2023,04,20,16,31,8.20
2023,04,20,16,32,8.10
2023,04,20,16,33,8.10
2023,04,20,16,34,8.10
2023,04,20,16,35,8.00
2023,04,20,16,36,8.00
2023,04,20,16,37,8.00
2023,04,20,16,38,7.90
2023,04,20,16,39,7.90
2023,04,20,16,40,7.90
2023,04,20,16,41,7.90
2023,04,20,16,42,7.80
2023,04,20,16,43,7.80
2023,04,20,16,44,7.80
2023,04,20,16,45,7.80
2023,04,20,16,46,7.80
2023,04,20,16,47,7.70
2023,04,20,16,48,7.70
2023,04,20,16,49,7.70
2023,04,20,16,50,7.70
2023,04,20,16,51,7.70
2023,04,20,16,52,7.70
2023,04,20,16,53,7.60
2023,04,20,16,54,7.60
2023,04,20,16,55,7.60
2023,04,20,16,56,7.60
2023,04,20,16,57,7.60
2023,04,20,16,58,7.60
2023,04,20,16,59,7.60
2023,04,20,17,00,7.60
2023,04,20,17,01,7.60
2023,04,20,17,02,7.60
2023,04,20,17,03,7.60
2023,04,20,17,04,7.60
2023,04,20,17,05,7.60
2023,04,20,17,06,7.50
2023,04,20,17,07,7.60
2023,04,20,17,08,7.60
2023,04,20,17,09,7.60
2023,04,20,17,10,7.60
2023,04,20,17,11,7.60
2023,04,20,17,12,7.60
2023,04,20,17,13,7.50
2023,04,20,17,14,7.50
2023,04,20,17,15,7.50
2023,04,20,17,16,7.50
2023,04,20,17,17,7.50
2023,04,20,17,18,7.50
2023,04,20,17,19,7.50
2023,04,20,17,20,7.50
2023,04,20,17,21,7.50
2023,04,20,17,22,7.50
2023,04,20,17,23,7.50
2023,04,20,17,24,7.50
2023,04,20,17,25,7.60
2023,04,20,17,26,7.60
2023,04,20,17,27,7.60
2023,04,20,17,28,7.60
2023,04,20,17,29,7.60
2023,04,20,17,30,7.60
2023,04,20,17,31,7.60
2023,04,20,17,32,7.50
2023,04,20,17,33,7.50
2023,04,20,17,34,7.50
2023,04,20,17,35,7.50
2023,04,20,17,36,7.50
2023,04,20,17,37,7.50
2023,04,20,17,38,7.50
2023,04,20,17,39,7.50
2023,04,20,17,40,7.40
2023,04,20,17,41,7.40
2023,04,20,17,42,7.40
2023,04,20,17,43,7.50
2023,04,20,17,44,7.40
2023,04,20,17,45,7.40
2023,04,20,17,46,7.40
2023,04,20,17,47,7.40
2023,04,20,17,48,7.40
2023,04,20,17,49,7.40
2023,04,20,17,50,7.50
2023,04,20,17,51,7.50
2023,04,20,17,52,7.50
2023,04,20,17,53,7.60
2023,04,20,17,54,7.50
2023,04,20,17,55,7.50
2023,04,20,17,56,7.50
2023,04,20,17,57,7.50
2023,04,20,17,58,7.50
2023,04,20,17,59,7.50
2023,04,20,18,00,7.50
2023,04,20,18,01,7.50
2023,04,20,18,02,7.40
2023,04,20,18,03,7.50
2023,04,20,18,04,7.50
2023,04,20,18,05,7.50
2023,04,20,18,06,7.50